Regional Weather Roundup
Issued by NWS

Home | Current Version | Previous Version | Text Only | Print | Product List | Glossary On
Versions: 1 2 3 4 5 6 7 8 9 10 11 12 13 14 15 16 17 18 19 20 21 22 23 24 25 26 27 28
000
ASUS44 KBMX 200910
RWRAL

ALABAMA REGIONAL WEATHER ROUNDUP
NATIONAL WEATHER SERVICE BIRMINGHAM AL
400 AM CDT FRI OCT 20 2017

NOTE: "FAIR" INDICATES FEW OR NO CLOUDS BELOW 12,000 FEET
WITH NO SIGNIFICANT WEATHER AND/OR OBSTRUCTIONS TO VISIBILITY.

THE REMARK "TC" DENOTES TEMPERATURE IN DEGREES CELSIUS.

ALZ001>011-014-016>018-020-201000-
NORTH ALABAMA

CITY           SKY/WX    TMP DP  RH WIND       PRES   REMARKS
MUSCLE SHOALS  FAIR      43  41  93 CALM      30.26R
HUNTSVILLE     FAIR      48  47  96 E3        30.25S
DECATUR        FAIR      43  43 100 CALM      30.26S FOG
HALEYVILLE     FAIR      44  44 100 CALM      30.27S
GADSDEN        FAIR      40  40 100 CALM      30.27R FOG
$$

ALZ012-013-022-023-030>036-040>044-201000-
WEST CENTRAL ALABAMA

CITY           SKY/WX    TMP DP  RH WIND       PRES   REMARKS
TUSCALOOSA     FAIR      50  50 100 CALM      30.24R
DEMOPOLIS        N/A     49  49  98 CALM      30.21S
$$

ALZ015-024>026-033>036-041>044-201000-
CENTRAL ALABAMA

CITY           SKY/WX    TMP DP  RH WIND       PRES   REMARKS
BIRMINGHAM     FAIR      49  46  90 CALM      30.27R
MONTGOMERY     FAIR      54  49  83 CALM      30.22S
SHELBY CO ARPT FAIR      51  50  96 CALM      30.24S
MAXWELL AFB    FAIR      55  54  97 CALM      30.22R
GREENVILLE     FAIR      57  51  80 CALM      30.20S
SELMA          FAIR      50  48  93 CALM      30.21S
PRATTVILLE     FAIR      49  49  99 CALM      30.22S
BESSEMER       FAIR      50  48  93 E5        30.25S
TALLADEGA      FAIR      45  45  99 CALM      30.26S
PELL CITY      FOG       50  50 100 CALM      30.26S VSB 0
MARION         NOT AVBL
SYLACAUGA      FAIR      46  46 100 CALM      30.25S
$$

ALZ019-021-028-029-037-038-045>048-201000-
EAST CENTRAL ALABAMA

CITY           SKY/WX    TMP DP  RH WIND       PRES   REMARKS
ANNISTON       FAIR      49  46  90 NE5       30.26R
ALEXANDER CITY FAIR      48  47  95 N3        30.25R
AUBURN         FAIR      53  49  86 NE6       30.25R
$$

ALZ051>064-201000-
SOUTHWEST ALABAMA

CITY           SKY/WX    TMP DP  RH WIND       PRES   REMARKS
MOBILE         FAIR      62  58  86 NE7       30.16F
BROOKLEY FIELD FAIR      70  62  76 NE12      30.16F
EVERGREEN      FAIR      53  52  96 CALM      30.20S
$$

ALZ049-050-065>069-201000-
SOUTHEAST ALABAMA

CITY           SKY/WX    TMP DP  RH WIND       PRES   REMARKS
DOTHAN         FAIR      58  54  86 NE7       30.23S
OZARK          FAIR      58  54  87 NE7       30.19S
TROY           FAIR      51  51 100 CALM      30.22S FOG
EUFAULA        FAIR      51  50  96 CALM      30.21S
$$




USA.gov is the U.S. government's official web portal to all federal, state and local government web resources and services.